TimeMDT,TemperatureF,Dew PointF,Humidity,Sea Level PressureIn,VisibilityMPH,Wind Direction,Wind SpeedMPH,Gust SpeedMPH,PrecipitationIn,Events,Conditions,WindDirDegrees,DateUTC
12:15 AM,35.6,15.8,44,30.15,10.0,Calm,Calm,-,N/A,,Clear,0,2012-10-18 06:15:00
12:35 AM,35.6,15.8,44,30.15,10.0,Calm,Calm,-,N/A,,Clear,0,2012-10-18 06:35:00
12:55 AM,33.8,17.6,52,30.16,10.0,ENE,5.8,-,N/A,,Clear,70,2012-10-18 06:55:00
1:15 AM,32.0,19.4,60,30.18,10.0,ENE,5.8,-,N/A,,Clear,60,2012-10-18 07:15:00
1:35 AM,33.8,17.6,52,30.18,10.0,ENE,8.1,-,N/A,,Clear,70,2012-10-18 07:35:00
1:55 AM,32.0,19.4,60,30.19,10.0,East,8.1,-,N/A,,Clear,90,2012-10-18 07:55:00
2:15 AM,32.0,17.6,55,30.20,10.0,ESE,4.6,-,N/A,,Clear,120,2012-10-18 08:15:00
2:35 AM,30.2,19.4,64,30.20,10.0,East,6.9,-,N/A,,Clear,80,2012-10-18 08:35:00
2:55 AM,30.2,19.4,64,30.21,10.0,East,8.1,-,N/A,,Clear,90,2012-10-18 08:55:00
3:15 AM,28.4,19.4,69,30.22,10.0,East,8.1,-,N/A,,Clear,100,2012-10-18 09:15:00
3:35 AM,30.2,17.6,60,30.22,10.0,ENE,6.9,-,N/A,,Clear,70,2012-10-18 09:35:00
3:55 AM,28.4,19.4,69,30.22,10.0,East,5.8,-,N/A,,Clear,80,2012-10-18 09:55:00
4:15 AM,28.4,19.4,69,30.23,10.0,ESE,6.9,-,N/A,,Clear,120,2012-10-18 10:15:00
4:55 AM,28.4,19.4,69,30.24,10.0,NE,3.5,-,N/A,,Clear,40,2012-10-18 10:55:00
5:35 AM,26.6,19.4,74,30.24,10.0,Calm,Calm,-,N/A,,Clear,0,2012-10-18 11:35:00
5:55 AM,26.6,19.4,74,30.25,10.0,Calm,Calm,-,N/A,,Clear,0,2012-10-18 11:55:00
6:15 AM,26.6,19.4,74,30.25,10.0,Calm,Calm,-,N/A,,Clear,0,2012-10-18 12:15:00
6:35 AM,26.6,19.4,74,30.25,10.0,ESE,5.8,-,N/A,,Clear,110,2012-10-18 12:35:00
6:50 AM,26.6,19.4,74,30.25,10.0,Calm,Calm,-,N/A,,Partly Cloudy,0,2012-10-18 12:50:00
7:50 AM,24.8,19.4,80,30.27,10.0,Calm,Calm,-,N/A,,Partly Cloudy,0,2012-10-18 13:50:00
8:50 AM,30.2,19.4,64,30.29,10.0,Calm,Calm,-,N/A,,Clear,0,2012-10-18 14:50:00
9:50 AM,35.6,15.8,44,30.29,10.0,Calm,Calm,-,N/A,,Clear,0,2012-10-18 15:50:00
10:50 AM,44.6,10.4,25,30.27,10.0,Calm,Calm,-,N/A,,Clear,0,2012-10-18 16:50:00
11:56 AM,50.0,10.4,20,30.25,10.0,Calm,Calm,-,N/A,,Clear,0,2012-10-18 17:56:00
12:53 PM,55.4,10.4,17,30.22,10.0,ESE,3.5,-,N/A,,Clear,110,2012-10-18 18:53:00
1:46 PM,57.2,10.4,16,30.19,10.0,WSW,16.1,24.2,N/A,,Clear,240,2012-10-18 19:46:00
2:46 PM,59.0,10.4,15,30.17,10.0,SSW,17.3,23.0,N/A,,Clear,200,2012-10-18 20:46:00
3:45 PM,60.8,12.2,15,30.18,10.0,SSW,12.7,23.0,N/A,,Clear,200,2012-10-18 21:45:00
4:46 PM,60.8,12.2,15,30.17,10.0,SW,12.7,-,N/A,,Clear,230,2012-10-18 22:46:00
5:49 PM,57.2,12.2,17,30.19,10.0,SW,12.7,17.3,N/A,,Clear,220,2012-10-18 23:49:00
6:47 PM,53.6,15.8,22,30.20,10.0,SW,5.8,-,N/A,,Clear,230,2012-10-19 00:47:00
7:15 PM,53.6,14.0,21,30.21,10.0,SW,9.2,-,N/A,,Clear,220,2012-10-19 01:15:00
7:35 PM,51.8,15.8,24,30.22,10.0,Calm,Calm,-,N/A,,Clear,0,2012-10-19 01:35:00
7:55 PM,48.2,15.8,27,30.22,10.0,Calm,Calm,-,N/A,,Clear,0,2012-10-19 01:55:00
8:15 PM,46.4,17.6,32,30.23,10.0,ESE,4.6,-,N/A,,Clear,110,2012-10-19 02:15:00
8:35 PM,42.8,19.4,39,30.23,10.0,East,5.8,-,N/A,,Clear,80,2012-10-19 02:35:00
8:55 PM,42.8,19.4,39,30.24,10.0,East,5.8,-,N/A,,Clear,80,2012-10-19 02:55:00
9:35 PM,39.2,19.4,45,30.25,10.0,East,8.1,-,N/A,,Clear,90,2012-10-19 03:35:00
9:55 PM,39.2,19.4,45,30.25,10.0,ENE,9.2,-,N/A,,Clear,70,2012-10-19 03:55:00
10:15 PM,37.4,21.2,52,30.25,10.0,East,5.8,-,N/A,,Clear,80,2012-10-19 04:15:00
10:35 PM,37.4,21.2,52,30.26,10.0,ESE,3.5,-,N/A,,Clear,110,2012-10-19 04:35:00
11:15 PM,37.4,19.4,48,30.26,10.0,East,4.6,-,N/A,,Clear,80,2012-10-19 05:15:00
11:35 PM,35.6,19.4,52,30.26,10.0,ESE,3.5,-,N/A,,Clear,110,2012-10-19 05:35:00
11:55 PM,35.6,19.4,52,30.26,10.0,SE,3.5,-,N/A,,Clear,140,2012-10-19 05:55:00